Location: Vassar Physics Lab
(41.6843°N, 73.8954°W)
Time: 21:49:25
(UTC-04:00)

CZ-4B DEB - Visible Passes

Search period start: 01 September 2014 00:00
Search period end: 11 September 2014 00:00
Orbit: 842 x 865 km, 98.8° (Epoch: 31 August)

Date Brightness Start Highest point End Pass type
(mag) Time Alt. Az. Time Alt. Az. Time Alt. Az.
01 Sep 6.4 03:19:34 10° NE 03:23:25 19° E 03:27:11 10° SE visible
01 Sep 4.3 04:59:09 10° N 05:04:31 57° WNW 05:09:14 14° SSW visible
02 Sep 6.7 03:09:16 10° NE 03:12:24 15° E 03:15:31 10° SE visible
02 Sep 4.2 04:48:11 10° N 04:53:40 71° WNW 04:58:08 16° SSW visible
03 Sep 6.8 02:59:24 10° ENE 03:01:21 12° E 03:03:19 10° ESE visible
03 Sep 4.2 04:37:15 10° NNE 04:42:47 87° WNW 04:47:02 18° SSW visible
04 Sep 4.3 04:26:22 10° NNE 04:31:53 76° ESE 04:35:56 19° S visible
05 Sep 4.6 04:15:31 10° NNE 04:20:58 61° ESE 04:24:49 20° S visible
05 Sep 5.6 05:57:23 10° NNW 06:01:14 20° WNW 06:05:05 10° WSW visible
06 Sep 5.0 04:04:42 10° NNE 04:10:03 49° E 04:13:42 20° SSE visible
06 Sep 5.4 05:46:09 10° NNW 05:50:28 24° WNW 05:54:47 10° WSW visible
07 Sep 5.4 03:53:57 10° NNE 03:59:06 39° E 04:02:36 19° SSE visible
07 Sep 5.1 05:35:00 10° N 05:39:40 29° WNW 05:44:21 10° WSW visible
08 Sep 5.7 03:43:15 10° NE 03:48:08 32° E 03:51:29 17° SSE visible
08 Sep 4.9 05:23:54 10° N 05:28:52 36° WNW 05:33:33 11° SW visible
09 Sep 6.1 03:32:37 10° NE 03:37:09 25° E 03:40:22 16° SE visible
09 Sep 4.6 05:12:50 10° N 05:18:02 44° WNW 05:22:26 14° SW visible
10 Sep 6.3 03:22:06 10° NE 03:26:08 20° E 03:29:15 13° SE visible
10 Sep 4.4 05:01:49 10° N 05:07:12 54° WNW 05:11:19 17° SW visible
